Location: Natural Bridges National Monument
(37.6093°N, 109.9767°W)
Time: 12:06:56
(UTC-06:00)

Amateur Radio Satellites - All Passes

Search period start: 26 September 2017 11:36
Search period end: 27 September 2017 11:36
Location: Natural Bridges National Monument, 37.6093°N, 109.9767°W

Satellite Date Start Highest point End Downlink Frequencies (MHz)
Time Altitude Azimuth
TIGRISAT 26 Sep 11:37:54 11:40:46 17° 267° (W) 11:43:41 435.000
O/OREOS (USA 219) 26 Sep 11:38:48 11:42:35 24° 61° (ENE) 11:46:21 437.305
AIST 2D 26 Sep 11:40:51 11:44:21 60° 76° (ENE) 11:47:52 435.315
QB50P2 26 Sep 11:43:12 11:46:44 27° 70° (ENE) 11:50:19 145.880/145.840
RS-15 26 Sep 11:54:07 12:02:48 21° 22° (NNE) 12:11:10 29.354- 29.394
NO-84 26 Sep 12:05:26 12:09:22 48° 131° (SE) 12:13:01 435.350 FM
NANOSAT C BR1 26 Sep 12:14:46 12:18:49 50° 74° (ENE) 12:22:54 145.865
EO-88 26 Sep 12:15:01 12:17:30 18° 291° (WNW) 12:19:59 145.990 - 145.960
M-CUBED/EXP-1 PRIME 26 Sep 12:32:00 12:35:47 33° 68° (ENE) 12:39:21 437.505
YUBILEINY 26 Sep 12:38:48 12:47:25 71° 93° (E) 12:56:03 435.215
SPROUT 26 Sep 12:40:25 12:42:33 13° 92° (E) 12:44:41 437.525
DUCHIFAT 1 26 Sep 12:41:15 12:45:25 88° 248° (WSW) 12:49:39 145.980
ESTCUBE 1 26 Sep 12:48:49 12:53:19 77° 102° (ESE) 12:57:47 437.505/2401.250
LO-87 26 Sep 13:00:09 13:03:30 37° 286° (WNW) 13:06:52 145.935 - 145.965
POLYITAN 1 26 Sep 13:00:13 13:04:10 39° 261° (W) 13:08:10 437.675
EO-79 26 Sep 13:03:41 13:07:32 36° 262° (W) 13:11:28 145.935-145.965
BUGSAT 1 26 Sep 13:04:15 13:07:59 39° 73° (ENE) 13:11:48 437.445
VELOX 1 26 Sep 13:04:44 13:07:48 18° 94° (E) 13:10:52 145.980
O/OREOS (USA 219) 26 Sep 13:17:58 13:21:58 30° 257° (WSW) 13:25:57 437.305
QB50P2 26 Sep 13:19:11 13:22:28 22° 265° (W) 13:25:48 145.880/145.840
SO-50 26 Sep 13:40:15 13:44:40 60° 117° (ESE) 13:49:06 436.795
Oscar 19 26 Sep 13:42:09 13:47:10 53° 73° (ENE) 13:52:14 437.125/150
AO-7 26 Sep 13:43:23 13:46:34 13° 48° (NE) 13:49:44 .
NO-84 26 Sep 13:43:54 13:46:54 21° 325° (NW) 13:49:45 435.350 FM
50 SAT 26 Sep 13:46:20 13:47:59 13° 94° (E) 13:49:37 437.505
Gurwin Techsat 1B 26 Sep 13:52:53 13:57:54 45° 71° (ENE) 14:02:56 435.225
NANOSAT C BR1 26 Sep 13:53:18 13:54:47 12° 269° (W) 13:56:17 145.865
DX 1 26 Sep 14:03:04 14:06:19 20° 95° (E) 14:09:32 434.975-435.025
RS-15 26 Sep 14:06:56 14:18:44 58° 52° (NE) 14:29:51 29.354- 29.394
M-CUBED/EXP-1 PRIME 26 Sep 14:07:14 14:10:11 18° 259° (W) 14:13:00 437.505
PCSat 26 Sep 14:12:57 14:18:08 49° 112° (ESE) 14:23:22 145.827
SPROUT 26 Sep 14:14:32 14:18:39 45° 287° (WNW) 14:22:45 437.525
YUBILEINY 26 Sep 14:38:29 14:44:58 23° 292° (WNW) 14:51:30 435.215
VELOX 1 26 Sep 14:40:20 14:44:19 35° 289° (WNW) 14:48:18 145.980
BUGSAT 1 26 Sep 14:41:27 14:43:31 14° 268° (W) 14:45:36 437.445
ITAMSAT 1 26 Sep 14:56:10 14:59:26 17° 63° (ENE) 15:02:43 435.822/435.867
50 SAT 26 Sep 15:17:40 15:20:28 26° 288° (WNW) 15:23:15 437.505
SO-50 26 Sep 15:22:41 15:25:29 16° 315° (NW) 15:28:19 436.795
ITUPSAT 1 26 Sep 15:22:46 15:24:06 11° 91° (E) 15:25:26 437.325
Oscar 19 26 Sep 15:23:29 15:26:46 17° 267° (W) 15:30:03 437.125/150
UKube-1 26 Sep 15:24:23 15:28:41 72° 284° (WNW) 15:32:58 .
AO-7 26 Sep 15:29:31 15:37:40 62° 67° (ENE) 15:45:49 .
Gurwin Techsat 1B 26 Sep 15:34:08 15:38:00 20° 266° (W) 15:41:55 435.225
DX 1 26 Sep 15:38:41 15:42:30 31° 290° (WNW) 15:46:19 434.975-435.025
BEESAT 26 Sep 15:54:49 15:58:51 26° 96° (E) 16:02:51 436.000
MOZHAYETS 4 26 Sep 15:57:01 16:01:01 28° 96° (E) 16:04:59
PCSat 26 Sep 15:57:31 16:01:46 23° 309° (NW) 16:06:04 145.827
RS-15 26 Sep 16:20:08 16:30:39 40° 254° (WSW) 16:40:42 29.354- 29.394
ITAMSAT 1 26 Sep 16:33:22 16:38:25 55° 259° (W) 16:43:30 435.822/435.867
CUBESAT XI-V 26 Sep 16:33:33 16:35:53 14° 91° (E) 16:38:13 437.345
ITUPSAT 1 26 Sep 16:57:33 17:02:20 68° 286° (WNW) 17:07:06 437.325
DOVE 4 26 Sep 17:01:58 17:05:23 23° 70° (ENE) 17:08:42 437.250
AO-7 26 Sep 17:24:06 17:30:49 27° 264° (W) 17:37:36 .
KKS-1 26 Sep 17:29:58 17:33:01 18° 94° (E) 17:36:03 437.445
BEESAT 26 Sep 17:32:25 17:36:33 29° 291° (WNW) 17:40:40 436.000
MOZHAYETS 4 26 Sep 17:34:14 17:38:02 26° 291° (WNW) 17:41:48
XW-2C 26 Sep 17:42:12 17:44:26 15° 68° (ENE) 17:46:41 145.795 - 145.815
LilacSat-2 26 Sep 17:57:35 18:00:46 25° 71° (ENE) 18:03:58 437.200
KAITUO 1B 26 Sep 18:03:10 18:05:55 19° 70° (ENE) 18:08:41 145.475/437.950
JUGNU 26 Sep 18:07:54 18:09:36 11° 171° (S) 18:11:19 437.505
CUBESAT XI-V 26 Sep 18:09:03 18:13:32 51° 286° (WNW) 18:17:57 437.345
Tancredo 1 26 Sep 18:09:20 18:11:50 39° 136° (SE) 18:14:22 437.200
BEESAT 3 26 Sep 18:16:26 18:18:25 13° 109° (ESE) 18:20:24 437.485
DOVE 4 26 Sep 18:39:15 18:42:57 26° 263° (W) 18:46:33 437.250
XW-2D 26 Sep 18:40:20 18:44:11 86° 78° (ENE) 18:48:03 145.860 - 145.880
NO-84 26 Sep 18:41:58 18:43:27 13° 29° (NNE) 18:44:53 435.350 FM
CUTE-I 26 Sep 18:45:37 18:50:55 76° 75° (ENE) 18:56:13 437.470
XW-2F 26 Sep 18:49:58 18:53:48 79° 260° (W) 18:57:38 145.980 - 146.000
XW-2B 26 Sep 18:52:51 18:56:40 68° 259° (W) 19:00:31 145.730 - 145.750
HO-68 26 Sep 18:56:24 19:02:59 42° 66° (ENE) 19:09:36 435.675
SEEDS 26 Sep 18:57:41 19:00:01 15° 66° (ENE) 19:02:20 437.485
NUDT-PHONESAT 26 Sep 19:01:40 19:05:25 74° 258° (WSW) 19:09:11 437.300
CUBEBUG 2 26 Sep 19:01:46 19:04:10 15° 65° (ENE) 19:06:39 437.445
nSIGHT-1 26 Sep 19:04:26 19:06:56 21° 131° (SE) 19:09:28 .
KKS-1 26 Sep 19:05:33 19:09:39 37° 289° (WNW) 19:13:44 437.445
AO-85 26 Sep 19:08:03 19:10:06 14° 110° (ESE) 19:12:09 145.980
XW-2C 26 Sep 19:14:47 19:18:18 34° 262° (W) 19:21:50 145.795 - 145.815
STARS 26 Sep 19:19:42 19:24:05 65° 285° (WNW) 19:28:27 437.465
STRAND 1 26 Sep 19:27:07 19:28:28 11° 90° (E) 19:29:49 437.568
CUTE 1.7 + AOD 2 26 Sep 19:30:23 19:34:35 57° 75° (ENE) 19:38:47 437.475
LilacSat-2 26 Sep 19:32:04 19:34:58 20° 265° (W) 19:37:54 437.200
KAITUO 1B 26 Sep 19:36:35 19:39:44 25° 264° (W) 19:42:53 145.475/437.950
ZACube-1 26 Sep 19:41:31 19:43:27 13° 64° (ENE) 19:45:24 437.345
Tancredo 1 26 Sep 19:44:35 19:46:22 16° 332° (NNW) 19:48:09 437.200
BEESAT 3 26 Sep 19:51:41 19:55:32 46° 304° (NW) 19:59:26 437.485
XW-2A 26 Sep 19:54:53 19:58:06 40° 74° (ENE) 20:01:20 145.665 - 145.685
JUGNU 26 Sep 19:54:58 19:57:45 13° 181° (S) 20:00:33 437.505
BEESAT 2 26 Sep 20:07:07 20:11:06 75° 119° (ESE) 20:15:09 435.950
ISS 26 Sep 20:07:14 20:10:29 81° 317° (NW) 20:13:47 437.550
NO-84 26 Sep 20:18:11 20:21:08 59° 228° (SW) 20:23:57 435.350 FM
CUTE-I 26 Sep 20:29:46 20:31:28 11° 270° (W) 20:33:11 437.470
SEEDS 26 Sep 20:31:15 20:35:17 44° 261° (W) 20:39:21 437.485
UWE-3 26 Sep 20:35:20 20:39:38 84° 256° (WSW) 20:44:07 435.000/436.395/437.385
CUBEBUG 2 26 Sep 20:36:17 20:40:20 45° 261° (W) 20:44:35 437.445
nSIGHT-1 26 Sep 20:40:09 20:43:07 33° 327° (NNW) 20:46:06 .
AAUSAT CUBESAT 2 26 Sep 20:42:55 20:47:04 76° 258° (WSW) 20:51:14 437.432
HO-68 26 Sep 20:44:22 20:50:43 34° 263° (W) 20:57:08 435.675
AO-85 26 Sep 20:46:26 20:50:06 39° 305° (NW) 20:53:49 145.980
STRAND 1 26 Sep 21:03:00 21:08:09 76° 285° (WNW) 21:13:17 437.568
Oscar 11 26 Sep 21:04:39 21:08:58 67° 76° (ENE) 21:13:19 .
AO-73 26 Sep 21:09:44 21:14:04 73° 259° (WSW) 21:18:32 145.935
CUTE 1.7 + AOD 2 26 Sep 21:09:48 21:10:43 11° 269° (W) 21:11:38 437.475
ZACube-1 26 Sep 21:14:55 21:19:10 56° 260° (W) 21:23:34 437.345
SRMSAT 26 Sep 21:27:11 21:29:23 12° 174° (S) 21:31:36 437.500
DELFI C3 26 Sep 21:38:49 21:42:21 32° 72° (ENE) 21:45:53 145.870
ISS 26 Sep 21:45:34 21:47:25 14° 338° (NNW) 21:49:17 437.550
BEESAT 2 26 Sep 21:47:56 21:49:20 11° 316° (NW) 21:50:45 435.950
FO-29 26 Sep 21:49:20 21:54:38 37° 99° (E) 22:00:29 435.910
Max Valier Satellite 26 Sep 21:57:00 22:00:27 38° 73° (ENE) 22:03:56 145.860
SO-50 26 Sep 22:13:16 22:17:24 32° 52° (NE) 22:21:35 436.795
EO-88 26 Sep 22:49:16 22:52:52 54° 260° (W) 22:56:30 145.990 - 145.960
YUBILEINY 26 Sep 22:51:49 22:59:23 32° 72° (ENE) 23:06:55 435.215
PRISM 26 Sep 22:57:39 23:00:57 23° 96° (E) 23:04:14 437.425
PCSat 26 Sep 23:02:55 23:07:32 28° 53° (NE) 23:12:09 145.827
UNISAT 6 26 Sep 23:06:26 23:11:09 69° 102° (ESE) 23:15:49 437.425
DELFI C3 26 Sep 23:14:43 23:17:09 16° 267° (W) 23:19:36 145.870
SRMSAT 26 Sep 23:15:08 23:17:41 13° 184° (S) 23:20:14 437.500
TIGRISAT 26 Sep 23:29:05 23:33:48 74° 282° (WNW) 23:38:28 435.000
Max Valier Satellite 26 Sep 23:33:00 23:34:26 12° 268° (W) 23:35:52 145.860
LO-87 26 Sep 23:33:39 23:37:06 55° 75° (ENE) 23:40:35 145.935 - 145.965
FO-29 26 Sep 23:34:47 23:39:36 30° 291° (WNW) 23:44:53 435.910
ESTCUBE 1 26 Sep 23:46:01 23:50:27 54° 74° (ENE) 23:54:52 437.505/2401.250
SO-50 26 Sep 23:53:54 23:57:44 26° 248° (WSW) 00:01:35 436.795
VELOX 1 27 Sep 00:01:03 00:03:17 14° 65° (ENE) 00:05:31 145.980
DUCHIFAT 1 27 Sep 00:28:05 00:30:50 17° 93° (E) 00:33:34 145.980
Tancredo 1 27 Sep 00:30:34 00:32:39 20° 30° (NNE) 00:34:42 437.200
PRISM 27 Sep 00:32:52 00:36:07 23° 291° (WNW) 00:39:21 437.425
AIST 2D 27 Sep 00:40:31 00:44:03 81° 282° (WNW) 00:47:31 435.315
UNISAT 6 27 Sep 00:45:28 00:47:13 12° 297° (WNW) 00:48:58 437.425
PCSat 27 Sep 00:46:00 00:51:00 39° 250° (WSW) 00:55:59 145.827
POLYITAN 1 27 Sep 00:46:37 00:50:35 35° 98° (E) 00:54:32 437.675
YUBILEINY 27 Sep 00:48:05 00:56:27 53° 270° (W) 01:04:50 435.215
EO-79 27 Sep 00:49:45 00:53:46 39° 98° (E) 00:57:46 145.935-145.965
DX 1 27 Sep 00:57:35 01:00:01 15° 65° (ENE) 01:02:27 434.975-435.025
ISS 27 Sep 01:01:34 01:02:52 12° 19° (NNE) 01:04:11 437.550
QB50P2 27 Sep 01:04:34 01:08:51 66° 101° (ESE) 01:13:06 145.880/145.840
SPROUT 27 Sep 01:05:14 01:09:28 81° 258° (WSW) 01:13:44 437.525
ESTCUBE 1 27 Sep 01:25:36 01:27:32 12° 268° (W) 01:29:28 437.505/2401.250
nSIGHT-1 27 Sep 01:32:58 01:35:19 18° 26° (NNE) 01:37:38 .
VELOX 1 27 Sep 01:35:00 01:39:16 50° 260° (W) 01:43:33 145.980
NANOSAT C BR1 27 Sep 01:36:07 01:40:22 65° 284° (WNW) 01:44:34 145.865
50 SAT 27 Sep 01:44:36 01:47:51 63° 75° (ENE) 01:51:07 437.505
M-CUBED/EXP-1 PRIME 27 Sep 01:46:28 01:49:12 25° 102° (ESE) 01:51:57 437.505
O/OREOS (USA 219) 27 Sep 01:48:48 01:52:57 38° 105° (ESE) 01:57:09 437.305
Oscar 19 27 Sep 01:56:26 02:00:18 21° 94° (E) 02:04:08 437.125/150
DUCHIFAT 1 27 Sep 02:02:40 02:06:35 36° 288° (WNW) 02:10:29 145.980
Tancredo 1 27 Sep 02:04:43 02:07:03 27° 226° (SW) 02:09:22 437.200
Gurwin Techsat 1B 27 Sep 02:11:44 02:15:38 20° 94° (E) 02:19:31 435.225
UKube-1 27 Sep 02:16:27 02:20:43 73° 75° (ENE) 02:25:01 .
BUGSAT 1 27 Sep 02:22:22 02:26:37 88° 282° (WNW) 02:30:51 437.445
POLYITAN 1 27 Sep 02:23:09 02:26:04 18° 293° (WNW) 02:28:59 437.675
EO-79 27 Sep 02:26:28 02:29:11 17° 293° (WNW) 02:31:54 145.935-145.965
ITUPSAT 1 27 Sep 02:28:00 02:29:38 12° 62° (ENE) 02:31:16 437.325
DX 1 27 Sep 02:31:38 02:35:47 45° 260° (W) 02:39:58 434.975-435.025
ISS 27 Sep 02:36:42 02:39:57 53° 37° (NE) 02:43:11 437.550
QB50P2 27 Sep 02:43:22 02:44:02 10° 297° (WNW) 02:44:42 145.880/145.840
MOZHAYETS 4 27 Sep 02:57:13 03:00:48 23° 68° (ENE) 03:04:24
BEESAT 27 Sep 02:59:27 03:03:20 25° 68° (ENE) 03:07:13 436.000
nSIGHT-1 27 Sep 03:08:40 03:11:52 59° 224° (SW) 03:15:04 .
M-CUBED/EXP-1 PRIME 27 Sep 03:21:40 03:23:27 14° 297° (WNW) 03:25:13 437.505
O/OREOS (USA 219) 27 Sep 03:29:14 03:32:28 19° 301° (WNW) 03:35:46 437.305
AO-7 27 Sep 03:34:39 03:40:34 21° 94° (E) 03:46:27 .
Oscar 19 27 Sep 03:34:55 03:39:44 41° 290° (WNW) 03:44:31 437.125/150
CUBESAT XI-V 27 Sep 03:35:51 03:37:40 12° 63° (ENE) 03:39:29 437.345
AO-85 27 Sep 03:40:00 03:41:34 12° 44° (NE) 03:43:10 145.980
Gurwin Techsat 1B 27 Sep 03:50:42 03:55:45 45° 289° (WNW) 04:00:46 435.225
ITUPSAT 1 27 Sep 04:02:02 04:06:48 73° 259° (WSW) 04:11:36 437.325
BEESAT 3 27 Sep 04:09:56 04:13:49 50° 57° (ENE) 04:17:37 437.485
ISS 27 Sep 04:14:24 04:16:05 13° 232° (SW) 04:17:44 437.550
BEESAT 2 27 Sep 04:26:50 04:30:11 24° 51° (NE) 04:33:30 435.950
RS-15 27 Sep 04:26:54 04:38:05 44° 107° (ESE) 04:49:20 29.354- 29.394
KKS-1 27 Sep 04:27:04 04:29:21 14° 64° (ENE) 04:31:38 437.445
MOZHAYETS 4 27 Sep 04:33:36 04:37:44 32° 263° (W) 04:41:55
BEESAT 27 Sep 04:36:45 04:40:56 30° 263° (W) 04:45:09 436.000
ITAMSAT 1 27 Sep 04:47:54 04:53:04 60° 102° (ESE) 04:58:13 435.822/435.867
CUBESAT XI-V 27 Sep 05:09:46 05:14:26 67° 259° (W) 05:19:07 437.345
AO-85 27 Sep 05:17:58 05:22:31 88° 60° (ENE) 05:27:23 145.980
AO-7 27 Sep 05:25:42 05:33:59 75° 290° (WNW) 05:42:13 .
BEESAT 3 27 Sep 05:49:31 05:50:52 12° 252° (WSW) 05:52:13 437.485
KKS-1 27 Sep 06:01:09 06:05:27 50° 260° (W) 06:09:45 437.445
BEESAT 2 27 Sep 06:04:27 06:07:52 27° 247° (WSW) 06:11:14 435.950
STARS 27 Sep 06:13:55 06:18:15 86° 80° (E) 06:22:38 437.465
XW-2F 27 Sep 06:25:51 06:27:14 12° 92° (E) 06:28:36 145.980 - 146.000
XW-2B 27 Sep 06:28:38 06:30:37 14° 93° (E) 06:32:35 145.730 - 145.750
ITAMSAT 1 27 Sep 06:28:54 06:32:00 16° 297° (WNW) 06:35:06 435.822/435.867
NUDT-PHONESAT 27 Sep 06:35:46 06:37:00 11° 92° (E) 06:38:13 437.300
DOVE 4 27 Sep 06:38:12 06:42:34 85° 106° (ESE) 06:47:08 437.250
RS-15 27 Sep 06:38:15 06:50:16 57° 309° (NW) 07:02:21 29.354- 29.394
STRAND 1 27 Sep 06:40:41 06:43:21 14° 62° (ENE) 06:46:02 437.568
XW-2C 27 Sep 06:49:10 06:52:23 25° 96° (E) 06:55:33 145.795 - 145.815
CUTE-I 27 Sep 07:04:48 07:09:41 35° 98° (E) 07:14:31 437.470
LilacSat-2 27 Sep 07:06:01 07:09:42 46° 99° (E) 07:13:21 437.200
KAITUO 1B 27 Sep 07:08:57 07:12:20 32° 98° (E) 07:15:41 145.475/437.950
CUTE 1.7 + AOD 2 27 Sep 07:19:30 07:20:43 11° 91° (E) 07:21:56 437.475
AO-7 27 Sep 07:20:55 07:25:21 16° 310° (NW) 07:29:48 .
XW-2D 27 Sep 07:48:46 07:52:25 46° 286° (WNW) 07:56:02 145.860 - 145.880
XW-2F 27 Sep 07:57:59 08:01:31 39° 287° (WNW) 08:05:00 145.980 - 146.000
XW-2B 27 Sep 08:01:26 08:04:53 34° 287° (WNW) 08:08:18 145.730 - 145.750
FO-29 27 Sep 08:04:52 08:05:57 11° 61° (ENE) 08:07:00 435.910
NUDT-PHONESAT 27 Sep 08:07:33 08:11:02 39° 286° (WNW) 08:14:28 437.300
HO-68 27 Sep 08:13:04 08:20:05 53° 101° (E) 08:27:03 435.675
SEEDS 27 Sep 08:16:50 08:20:36 32° 97° (E) 08:24:20 437.485
STRAND 1 27 Sep 08:16:54 08:21:56 65° 258° (WSW) 08:27:02 437.568
XW-2C 27 Sep 08:23:41 08:26:22 19° 291° (WNW) 08:29:01 145.795 - 145.815
UWE-3 27 Sep 08:27:10 08:30:56 24° 94° (E) 08:34:42 435.000/436.395/437.385
AAUSAT CUBESAT 2 27 Sep 08:27:41 08:30:33 18° 94° (E) 08:33:23 437.432
CUBEBUG 2 27 Sep 08:28:22 08:32:54 43° 98° (E) 08:37:25 437.445
LilacSat-2 27 Sep 08:42:23 08:43:31 11° 294° (WNW) 08:44:38 437.200
KAITUO 1B 27 Sep 08:43:58 08:46:00 14° 292° (WNW) 08:48:02 145.475/437.950
CUTE-I 27 Sep 08:45:07 08:49:33 27° 293° (WNW) 08:53:58 437.470
XW-2A 27 Sep 08:50:37 08:54:00 56° 100° (E) 08:57:19 145.665 - 145.685
CUTE 1.7 + AOD 2 27 Sep 08:52:43 08:56:50 52° 286° (WNW) 09:00:55 437.475
Oscar 11 27 Sep 08:55:15 08:57:35 14° 92° (E) 08:59:55 .
RS-15 27 Sep 08:57:36 09:06:22 21° 338° (NNW) 09:15:05 29.354- 29.394
AO-73 27 Sep 08:59:58 09:03:45 25° 95° (E) 09:07:28 145.935
ZACube-1 27 Sep 09:05:07 09:09:15 33° 96° (E) 09:13:19 437.345
FO-29 27 Sep 09:44:45 09:50:24 86° 254° (WSW) 09:55:39 435.910
PRISM 27 Sep 09:46:07 09:48:14 14° 66° (ENE) 09:50:21 437.425
SEEDS 27 Sep 09:53:10 09:56:02 18° 292° (WNW) 09:58:52 437.485
HO-68 27 Sep 10:01:28 10:07:24 29° 298° (WNW) 10:13:20 435.675
AAUSAT CUBESAT 2 27 Sep 10:02:25 10:06:01 30° 289° (WNW) 10:09:36 437.432
UNISAT 6 27 Sep 10:03:14 10:07:22 45° 73° (ENE) 10:11:39 437.425
UWE-3 27 Sep 10:03:15 10:07:20 31° 290° (WNW) 10:11:25 435.000/436.395/437.385
CUBEBUG 2 27 Sep 10:05:54 10:09:08 18° 293° (WNW) 10:12:22 437.445
EO-88 27 Sep 10:21:02 10:22:56 14° 93° (E) 10:24:49 145.990 - 145.960
TIGRISAT 27 Sep 10:25:29 10:29:49 75° 76° (ENE) 10:34:17 435.000
Oscar 11 27 Sep 10:29:48 10:33:55 43° 287° (WNW) 10:38:00 .
AO-73 27 Sep 10:36:01 10:39:53 28° 290° (WNW) 10:43:42 145.935
ZACube-1 27 Sep 10:41:47 10:45:18 22° 292° (WNW) 10:48:46 437.345
DELFI C3 27 Sep 10:51:30 10:55:24 71° 101° (E) 10:59:18 145.870
Max Valier Satellite 27 Sep 11:02:00 11:05:45 71° 102° (ESE) 11:09:26 145.860
AIST 2D 27 Sep 11:13:00 11:15:55 24° 71° (ENE) 11:18:50 435.315
RS-15 27 Sep 11:17:36 11:25:33 19° 15° (NNE) 11:33:18 29.354- 29.394
PRISM 27 Sep 11:19:14 11:23:07 42° 260° (W) 11:27:00 437.425
